Location: Alincthun
(50.7310°N, 1.8022°E)
Time: 15:34:03
(UTC+00:00)

NOSS 2-1 (C) - Pass Details

Date: 17 February 2020
Orbit: 450 x 1753 km, 63.3° (Epoch: 26 March)

Event Time Altitude Azimuth Distance (km) Brightness Sun altitude
Exits shadow 05:59:54 16° 277° (W) 1,330 4.6 -10.5°
Maximum altitude 06:02:09 29° 331° (NNW) 945 4.2 -10.1°
Drops below altitude 10° 06:05:45 10° 33° (NNE) 1,888 6.4 -9.6°
Sets 06:08:30 0° 44° (NE) 2,966 7.6 -9.1°
